Weather in Staraya Sinyava

Ukraine / Khmelnitsky District     49°35′45″N   27°37′23″E
temp.,
°C
wind,
m/s
gust,
m/s
humid.,
%
clouds,
%
prec.,
mm/h
press.,
hPa
HPBL,
m
28 september, tue
tue2800:00+6e36820 0.0 1024106
03:00+5e34880 0.0 102560
06:00+5e33922 0.0 102546
09:00+8e35745 0.0 1025231
12:00+13e455331 0.0 10251373
15:00+15e444687 0.0 10251720
18:00+13ene465092 0.0 1025344
21:00+11ene4760100 0.0 1027229
29 september, wed
wed2900:00+10e3762100 0.0 1028221
03:00+10e3665100 0.0 1029199
06:00+9e476499 0.0 1029223
09:00+11e576183 0.0 1029413
12:00+12ese5754100 0.0 10301214
15:00+14se564680 0.0 10291747
18:00+13se4649100 0.0 1029881
21:00+11ese495879 0.0 1030281
30 september, thu
thu3000:00+8ese412705 0.0 1030275
03:00+6se512730 0.0 1031321
06:00+5se310815 0.0 1031206
09:00+8se59655 0.0 1031351
12:00+13se56485 0.0 10311025
15:00+15se55420 0.0 10291321
18:00+14se36505 0.0 1029172
21:00+8se35658 0.0 103172
1 october, fri
fri100:00+7se496259 0.0 1031158
03:00+6se3853100 0.0 1032146
06:00+6se3853100 0.0 1032140
09:00+8se4847100 0.0 1032224
12:00+14sse5734100 0.0 1032866
15:00+16sse5629100 0.0 10301309
18:00+13se473791 0.0 1029164
21:00+9se474797 0.0 103099
2 october, sat
sat200:00+7se4115121 0.0 1030193
03:00+7sse41254100 0.0 1030235
06:00+7sse41254100 0.0 1029255
09:00+9sse51249100 0.0 1028397
12:00+14sse7944100 0.0 1028940
15:00+16sse7831100 0.0 10261183
18:00+14sse5103561 0.0 1025412
21:00+8se413515 0.0 1026212